| time (UTC) | temp C | wind direction | speed KPH | gust KPH | rain 1hr cm | rain 24hr cm | rain mn cm | humidity % | barometer mb |
| 20260505014734 | 24 | 270 | 3.2 | 8.0 | 0.00 | 3.38 | 3.38 | 99 | 1012.5 |
| 20260505014232 | 24 | 128 | 4.8 | 12.9 | 0.00 | 3.38 | 3.38 | 99 | 1012.5 |
| 20260505013728 | 24 | 135 | 4.8 | 6.4 | 0.00 | 3.38 | 3.38 | 99 | 1012.3 |
| 20260505013225 | 24 | 188 | 0.0 | 8.0 | 0.00 | 3.38 | 3.38 | 99 | 1012.3 |
| 20260505012724 | 24 | 173 | 1.6 | 11.3 | 0.00 | 3.38 | 3.38 | 99 | 1012.3 |
| 20260505012221 | 24 | 153 | 6.4 | 8.0 | 0.00 | 3.38 | 3.38 | 99 | 1012.2 |
| 20260505011716 | 25 | 234 | 0.0 | 8.0 | 0.00 | 3.38 | 3.38 | 99 | 1012.2 |
| 20260505011214 | 25 | 120 | 1.6 | 14.5 | 0.00 | 3.38 | 3.38 | 99 | 1012.3 |
| 20260505010709 | 25 | 258 | 8.0 | 19.3 | 0.00 | 3.38 | 3.38 | 99 | 1012.3 |
| 20260505010206 | 25 | 135 | 4.8 | 12.9 | 0.00 | 3.38 | 3.38 | 99 | 1012.2 |
| 20260505005702 | 25 | 217 | 0.0 | 14.5 | 0.00 | 3.38 | 3.38 | 99 | 1012.0 |
| 20260505005159 | 25 | 123 | 0.0 | 8.0 | 0.00 | 3.38 | 3.38 | 99 | 1012.1 |
| 20260505004656 | 25 | 246 | 1.6 | 16.1 | 0.00 | 3.38 | 3.38 | 99 | 1012.2 |
| 20260505004153 | 25 | 119 | 4.8 | 35.4 | 0.00 | 3.38 | 3.38 | 99 | 1012.0 |
| 20260505003650 | 25 | 212 | 0.0 | 9.7 | 0.00 | 3.38 | 3.38 | 99 | 1012.4 |
| 20260505003147 | 25 | 152 | 4.8 | 14.5 | 0.00 | 3.38 | 3.38 | 99 | 1012.4 |
| 20260505002644 | 25 | 153 | 6.4 | 11.3 | 0.00 | 3.38 | 3.38 | 99 | 1012.2 |
| 20260505002142 | 25 | 82 | 0.0 | 14.5 | 0.00 | 3.38 | 3.38 | 99 | 1012.4 |
| 20260505001638 | 25 | 90 | 0.0 | 12.9 | 0.00 | 3.38 | 3.38 | 99 | 1012.4 |
| 20260505001136 | 25 | 221 | 3.2 | 9.7 | 0.00 | 3.38 | 3.38 | 99 | 1012.5 |
| 20260505000633 | 26 | 217 | 11.3 | 29.0 | 0.00 | 3.38 | 3.38 | 99 | 1012.5 |
| 20260505000131 | 26 | 210 | 4.8 | 17.7 | 0.00 | 3.38 | 3.38 | 99 | 1012.4 |
| 20260504235627 | 26 | 131 | 0.0 | 14.5 | 0.00 | 3.38 | 3.38 | 99 | 1012.5 |
| 20260504235124 | 26 | 135 | 4.8 | 19.3 | 0.00 | 3.38 | 3.38 | 99 | 1012.4 |
| 20260504234621 | 26 | 175 | 8.0 | 11.3 | 0.00 | 3.38 | 3.38 | 99 | 1012.4 |
| 20260504234118 | 26 | 195 | 1.6 | 9.7 | 0.00 | 3.38 | 3.38 | 99 | 1012.6 |
| 20260504233613 | 26 | 218 | 4.8 | 17.7 | 0.00 | 3.38 | 3.38 | 99 | 1012.6 |
| 20260504233110 | 26 | 202 | 4.8 | 20.9 | 0.00 | 3.38 | 3.38 | 99 | 1012.5 |
| 20260504232607 | 26 | 142 | 4.8 | 14.5 | 0.00 | 3.38 | 3.38 | 99 | 1012.6 |
| 20260504232105 | 26 | 248 | 14.5 | 14.5 | 0.00 | 3.38 | 3.38 | 99 | 1012.6 |
| 20260504231601 | 26 | 173 | 1.6 | 30.6 | 0.00 | 3.38 | 3.38 | 99 | 1012.7 |
| 20260504231057 | 26 | 216 | 3.2 | 12.9 | 0.00 | 3.38 | 3.38 | 99 | 1012.7 |
| 20260504230553 | 26 | 147 | 4.8 | 14.5 | 0.00 | 3.38 | 3.38 | 99 | 1013.0 |
| 20260504230053 | 27 | 211 | 6.4 | 19.3 | 20.27 | 3.38 | 3.38 | 99 | 1012.9 |
| 20260504225549 | 27 | 203 | 24.1 | 24.1 | 20.27 | 3.38 | 3.38 | 99 | 1012.7 |
| 20260504225046 | 27 | 147 | 6.4 | 16.1 | 0.00 | 0.00 | 0.00 | 99 | 1013.0 |
| 20260504224543 | 27 | 84 | 4.8 | 12.9 | 0.00 | 0.00 | 0.00 | 99 | 1013.1 |
| 20260504224040 | 26 | 0 | 1.6 | 20.9 | 0.00 | 0.00 | 0.00 | 99 | 1013.2 |
| 20260504223537 | 27 | 103 | 4.8 | 11.3 | 0.00 | 0.00 | 0.00 | 99 | 1013.2 |
| 20260504223033 | 27 | 211 | 24.1 | 24.1 | 0.00 | 0.00 | 0.00 | 99 | 1012.9 |
| 20260504222530 | 27 | 176 | 3.2 | 22.5 | 0.00 | 0.00 | 0.00 | 99 | 1013.0 |
| 20260504222027 | 27 | 251 | 8.0 | 17.7 | 0.00 | 0.00 | 0.00 | 99 | 1013.1 |
| 20260504221524 | 27 | 235 | 6.4 | 14.5 | 0.00 | 0.00 | 0.00 | 99 | 1013.1 |
| 20260504221021 | 27 | 125 | 11.3 | 11.3 | 0.00 | 0.00 | 0.00 | 99 | 1013.2 |
| 20260504220518 | 27 | 249 | 0.0 | 17.7 | 0.00 | 0.00 | 0.00 | 99 | 1013.2 |
| 20260504220015 | 27 | 256 | 4.8 | 8.0 | 0.00 | 0.00 | 0.00 | 99 | 1013.3 |
| 20260504215511 | 27 | 159 | 4.8 | 11.3 | 0.00 | 0.00 | 0.00 | 99 | 1013.3 |
| 20260504215009 | 28 | 278 | 1.6 | 8.0 | 0.00 | 0.00 | 0.00 | 99 | 1013.5 |
| 20260504214504 | 27 | 128 | 3.2 | 20.9 | 0.00 | 0.00 | 0.00 | 99 | 1013.5 |
| 20260504214001 | 27 | 141 | 4.8 | 17.7 | 0.00 | 0.00 | 0.00 | 99 | 1013.6 |
| 20260504213457 | 27 | 174 | 1.6 | 19.3 | 0.00 | 0.00 | 0.00 | 99 | 1013.7 |
| 20260504212955 | 27 | 158 | 4.8 | 9.7 | 0.00 | 0.00 | 0.00 | 99 | 1013.7 |
| 20260504212450 | 27 | 111 | 0.0 | 16.1 | 0.00 | 0.00 | 0.00 | 99 | 1013.4 |
| 20260504211948 | 27 | 160 | 6.4 | 11.3 | 0.00 | 0.00 | 0.00 | 99 | 1014.1 |
| 20260504211444 | 27 | 240 | 4.8 | 20.9 | 0.00 | 0.00 | 0.00 | 99 | 1014.0 |
| 20260504210942 | 27 | 96 | 4.8 | 19.3 | 0.00 | 0.00 | 0.00 | 99 | 1014.0 |
| 20260504210438 | 27 | 145 | 6.4 | 9.7 | 0.00 | 0.00 | 0.00 | 99 | 1014.2 |
| 20260504205936 | 27 | 124 | 8.0 | 12.9 | 0.00 | 0.00 | 0.00 | 99 | 1014.4 |
| 20260504205433 | 28 | 153 | 6.4 | 14.5 | 0.00 | 0.00 | 0.00 | 99 | 1014.3 |
| 20260504204931 | 27 | 236 | 6.4 | 19.3 | 0.00 | 0.00 | 0.00 | 99 | 1014.4 |
| 20260504204429 | 27 | 134 | 6.4 | 17.7 | 0.00 | 0.00 | 0.00 | 99 | 1014.6 |
| 20260504203928 | 27 | 151 | 4.8 | 19.3 | 0.00 | 0.00 | 0.00 | 99 | 1014.5 |
| 20260504203425 | 27 | 96 | 3.2 | 12.9 | 0.00 | 0.00 | 0.00 | 99 | 1014.8 |
| 20260504202921 | 27 | 192 | 0.0 | 22.5 | 0.00 | 0.00 | 0.00 | 99 | 1015.0 |
| 20260504202418 | 27 | 184 | 3.2 | 20.9 | 0.00 | 0.00 | 0.00 | 99 | 1014.9 |
| 20260504201915 | 27 | 220 | 0.0 | 25.7 | 0.00 | 0.00 | 0.00 | 99 | 1015.0 |
| 20260504201412 | 27 | 134 | 8.0 | 19.3 | 0.00 | 0.00 | 0.00 | 99 | 1015.0 |
| 20260504200909 | 27 | 261 | 1.6 | 22.5 | 0.00 | 0.00 | 0.00 | 99 | 1015.4 |
| 20260504200406 | 27 | 144 | 9.7 | 20.9 | 0.00 | 0.00 | 0.00 | 99 | 1015.4 |
| 20260504195903 | 27 | 152 | 4.8 | 29.0 | 0.00 | 0.00 | 0.00 | 99 | 1015.8 |
| 20260504195358 | 27 | 235 | 14.5 | 19.3 | 0.00 | 0.00 | 0.00 | 99 | 1015.6 |
| 20260504194855 | 27 | 284 | 11.3 | 16.1 | 0.00 | 0.00 | 0.00 | 99 | 1016.0 |
| 20260504194351 | 26 | 145 | 4.8 | 9.7 | 0.00 | 0.00 | 0.00 | 99 | 1015.9 |
| 20260504193847 | 26 | 229 | 4.8 | 22.5 | 0.00 | 0.00 | 0.00 | 99 | 1015.9 |
| 20260504193344 | 26 | 119 | 3.2 | 20.9 | 0.00 | 0.00 | 0.00 | 99 | 1015.8 |
| 20260504192843 | 26 | 96 | 3.2 | 22.5 | 0.00 | 0.00 | 0.00 | 99 | 1016.3 |
| 20260504192341 | 26 | 189 | 4.8 | 20.9 | 0.00 | 0.00 | 0.00 | 99 | 1016.2 |
| 20260504191839 | 26 | 198 | 14.5 | 14.5 | 0.00 | 0.00 | 0.00 | 99 | 1016.0 |
| 20260504191337 | 26 | 119 | 4.8 | 12.9 | 0.00 | 0.00 | 0.00 | 99 | 1016.5 |
| 20260504190832 | 26 | 172 | 4.8 | 30.6 | 0.00 | 0.00 | 0.00 | 99 | 1016.7 |
| 20260504190328 | 26 | 169 | 3.2 | 12.9 | 0.00 | 0.00 | 0.00 | 99 | 1016.4 |
| 20260504185825 | 26 | 238 | 11.3 | 25.7 | 0.00 | 0.00 | 0.00 | 99 | 1016.5 |
| 20260504185322 | 26 | 223 | 11.3 | 16.1 | 0.00 | 0.00 | 0.00 | 99 | 1016.4 |
| 20260504184818 | 26 | 212 | 4.8 | 12.9 | 0.00 | 0.00 | 0.00 | 99 | 1016.6 |
| 20260504184314 | 25 | 124 | 6.4 | 12.9 | 0.00 | 0.00 | 0.00 | 99 | 1016.5 |
| 20260504183809 | 26 | 162 | 0.0 | 16.1 | 0.00 | 0.00 | 0.00 | 99 | 1016.6 |
| 20260504183307 | 25 | 226 | 9.7 | 19.3 | 0.00 | 0.00 | 0.00 | 99 | 1016.8 |
| 20260504182805 | 25 | 198 | 9.7 | 20.9 | 0.00 | 0.00 | 0.00 | 99 | 1016.9 |
| 20260504182304 | 25 | 208 | 8.0 | 22.5 | 0.00 | 0.00 | 0.00 | 99 | 1016.8 |
| 20260504181759 | 25 | 102 | 3.2 | 11.3 | 0.00 | 0.00 | 0.00 | 99 | 1017.0 |
| 20260504181256 | 26 | 218 | 4.8 | 11.3 | 0.00 | 0.00 | 0.00 | 99 | 1017.0 |
| 20260504180755 | 25 | 187 | 3.2 | 27.4 | 0.00 | 0.00 | 0.00 | 99 | 1017.2 |
| 20260504180253 | 25 | 155 | 9.7 | 12.9 | 0.00 | 0.00 | 0.00 | 99 | 1017.0 |
| 20260504175751 | 25 | 261 | 8.0 | 14.5 | 0.00 | 0.00 | 0.00 | 99 | 1017.4 |
| 20260504175248 | 25 | 114 | 0.0 | 27.4 | 0.00 | 0.00 | 0.00 | 99 | 1017.3 |
| 20260504174745 | 25 | 234 | 17.7 | 24.1 | 0.00 | 0.00 | 0.00 | 99 | 1017.6 |
| 20260504174243 | 25 | 65 | 0.0 | 11.3 | 0.00 | 0.00 | 0.00 | 99 | 1017.6 |
| 20260504173739 | 25 | 165 | 4.8 | 19.3 | 0.00 | 0.00 | 0.00 | 99 | 1017.6 |
| 20260504173237 | 25 | 112 | 3.2 | 9.7 | 0.00 | 0.00 | 0.00 | 99 | 1017.9 |
| 20260504172733 | 25 | 263 | 4.8 | 20.9 | 0.00 | 0.00 | 0.00 | 99 | 1018.0 |
| 20260504172230 | 25 | 90 | 1.6 | 12.9 | 0.00 | 0.00 | 0.00 | 99 | 1017.8 |
| 20260504171726 | 24 | 210 | 0.0 | 30.6 | 0.00 | 0.00 | 0.00 | 99 | 1017.9 |
| 20260504171223 | 25 | 143 | 3.2 | 14.5 | 0.00 | 0.00 | 0.00 | 99 | 1018.0 |
| 20260504170720 | 25 | 125 | 4.8 | 19.3 | 0.00 | 0.00 | 0.00 | 99 | 1018.3 |
| 20260504170217 | 24 | 123 | 0.0 | 11.3 | 0.00 | 0.00 | 0.00 | 99 | 1018.3 |
| 20260504160136 | 22 | 147 | 6.4 | 9.7 | 0.00 | 0.00 | 0.00 | 99 | 1019.0 |
| 20260504151103 | 21 | 133 | 4.8 | 14.5 | 0.00 | 0.00 | 0.00 | 99 | 1019.4 |
| 20260504150601 | 21 | 162 | 3.2 | 24.1 | 0.00 | 0.00 | 0.00 | 99 | 1019.5 |
| 20260504141026 | 20 | 154 | 3.2 | 29.0 | 0.00 | 0.00 | 0.00 | 99 | 1019.9 |
| 20260504140523 | 19 | 235 | 8.0 | 14.5 | 0.00 | 0.00 | 0.00 | 99 | 1019.8 |
| 20260504130447 | 17 | 198 | 6.4 | 12.9 | 0.00 | 0.00 | 0.00 | 99 | 1020.0 |
| 20260504110334 | 16 | 97 | 1.6 | 8.0 | 0.00 | 0.00 | 0.00 | 99 | 1019.3 |
| 20260504100252 | 17 | 141 | 0.0 | 6.4 | 0.00 | 0.00 | 0.00 | 99 | 1019.6 |
| 20260504081645 | 18 | 214 | 4.8 | 8.0 | 0.00 | 0.00 | 0.00 | 99 | 1020.1 |
| 20260504081141 | 17 | 215 | 0.0 | 6.4 | 0.00 | 0.00 | 0.00 | 99 | 1020.1 |
| 20260504080638 | 18 | 182 | 0.0 | 12.9 | 0.00 | 0.00 | 0.00 | 99 | 1020.1 |
| 20260504080134 | 18 | 194 | 4.8 | 8.0 | 0.00 | 0.00 | 0.00 | 99 | 1019.9 |
| 20260504050451 | 20 | 328 | 0.0 | 4.8 | 0.00 | 0.00 | 0.00 | 99 | 1021.9 |
| 20260504045948 | 20 | 233 | 0.0 | 9.7 | 0.00 | 0.00 | 0.00 | 99 | 1022.2 |
| 20260504045443 | 20 | 172 | 0.0 | 8.0 | 0.00 | 0.00 | 0.00 | 99 | 1022.2 |
| 20260504044940 | 20 | 247 | 0.0 | 6.4 | 0.00 | 0.00 | 0.00 | 99 | 1022.2 |
| 20260504044437 | 20 | 254 | 0.0 | 9.7 | 0.00 | 0.00 | 0.00 | 99 | 1022.1 |
| 20260504043935 | 20 | 103 | 0.0 | 9.7 | 0.00 | 0.00 | 0.00 | 99 | 1022.3 |
| 20260504043432 | 20 | 263 | 1.6 | 9.7 | 0.00 | 0.00 | 0.00 | 99 | 1022.3 |
| 20260504042929 | 20 | 192 | 1.6 | 11.3 | 0.00 | 0.00 | 0.00 | 99 | 1022.4 |
| 20260504042426 | 20 | 183 | 0.0 | 3.2 | 0.00 | 0.00 | 0.00 | 99 | 1022.3 |
| 20260504041922 | 20 | 163 | 3.2 | 6.4 | 0.00 | 0.00 | 0.00 | 99 | 1022.3 |
| 20260504041418 | 20 | 90 | 3.2 | 8.0 | 0.00 | 0.00 | 0.00 | 99 | 1022.3 |
| 20260504040914 | 20 | 228 | 0.0 | 3.2 | 0.00 | 0.00 | 0.00 | 99 | 1022.3 |
| 20260504040413 | 21 | 207 | 0.0 | 11.3 | 0.00 | 0.00 | 0.00 | 99 | 1022.3 |
| 20260504035908 | 20 | 123 | 3.2 | 4.8 | 0.00 | 0.00 | 0.00 | 99 | 1022.4 |
| 20260504035406 | 20 | 112 | 4.8 | 6.4 | 0.00 | 0.00 | 0.00 | 99 | 1022.5 |
| 20260504034902 | 21 | 109 | 0.0 | 4.8 | 0.00 | 0.00 | 0.00 | 99 | 1022.5 |
| 20260504034359 | 21 | 278 | 1.6 | 6.4 | 0.00 | 0.00 | 0.00 | 99 | 1022.2 |
| 20260504033856 | 21 | 203 | 0.0 | 3.2 | 0.00 | 0.00 | 0.00 | 99 | 1022.1 |
| 20260504033354 | 21 | 255 | 0.0 | 6.4 | 0.00 | 0.00 | 0.00 | 99 | 1022.2 |
| 20260504032851 | 21 | 151 | 1.6 | 6.4 | 0.00 | 0.00 | 0.00 | 99 | 1022.0 |
| 20260504032348 | 21 | 220 | 0.0 | 6.4 | 0.00 | 0.00 | 0.00 | 99 | 1022.1 |
| 20260504031844 | 21 | 132 | 0.0 | 8.0 | 0.00 | 0.00 | 0.00 | 99 | 1022.2 |
| 20260504031342 | 21 | 180 | 1.6 | 9.7 | 0.00 | 0.00 | 0.00 | 99 | 1022.0 |
| 20260504030838 | 21 | 81 | 0.0 | 8.0 | 0.00 | 0.00 | 0.00 | 99 | 1022.1 |
| 20260504030336 | 21 | 160 | 1.6 | 8.0 | 0.00 | 0.00 | 0.00 | 99 | 1021.8 |
| 20260504025832 | 21 | 217 | 3.2 | 6.4 | 0.00 | 0.00 | 0.00 | 99 | 1021.9 |
| 20260504025329 | 21 | 220 | 3.2 | 3.2 | 0.00 | 0.00 | 0.00 | 99 | 1021.9 |
| 20260504024825 | 22 | 148 | 0.0 | 4.8 | 0.00 | 0.00 | 0.00 | 99 | 1022.0 |
| 20260504024322 | 22 | 239 | 8.0 | 8.0 | 0.00 | 0.00 | 0.00 | 99 | 1022.1 |
| 20260504023819 | 22 | 270 | 0.0 | 11.3 | 0.00 | 0.00 | 0.00 | 99 | 1022.0 |
| 20260504023315 | 22 | 139 | 0.0 | 8.0 | 0.00 | 0.00 | 0.00 | 99 | 1022.1 |
| 20260504022811 | 22 | 176 | 3.2 | 6.4 | 0.00 | 0.00 | 0.00 | 99 | 1022.1 |
| 20260504022308 | 22 | 98 | 3.2 | 14.5 | 0.00 | 0.00 | 0.00 | 99 | 1022.2 |
| 20260504021804 | 22 | 99 | 0.0 | 8.0 | 0.00 | 0.00 | 0.00 | 99 | 1021.9 |
| 20260504021302 | 22 | 221 | 3.2 | 8.0 | 0.00 | 0.00 | 0.00 | 99 | 1022.1 |
| 20260504020759 | 22 | 254 | 1.6 | 4.8 | 0.00 | 0.00 | 0.00 | 99 | 1021.8 |
| 20260504020255 | 22 | 325 | 0.0 | 6.4 | 0.00 | 0.00 | 0.00 | 99 | 1021.7 |
| 20260504015751 | 23 | 117 | 0.0 | 9.7 | 0.00 | 0.00 | 0.00 | 99 | 1021.9 |
| 20260504015248 | 23 | 195 | 0.0 | 6.4 | 0.00 | 0.00 | 0.00 | 99 | 1021.9 |